Hourly Data Report for October 21, 2016

All times are specified in Local Standard Time (LST). Add 1 hour to adjust for Daylight Saving Time where and when it is observed.

SAINT JOHN A
NEW BRUNSWICK

45°18'58.000" N
65°53'24.000" W
108.80 m
8104901
71609
YSJ

Download Data

Hourly Data (October 2016)
Hourly Data Report for October 21, 2016
Temp Definition
°C
Dew Point Temp Definition
°C
Rel Hum Definition
%
Wind Dir Definition
10's deg

Wind Spd Definition
km/h
Visibility Definition
km
Stn Press Definition
kPa
Hmdx Definition


Wind Chill Definition


Weather Definition


TIME
00:00 Legend Double Dagger 11.3 8.4 82 12 16 24.1 101.09     LegendNANA
01:00 Legend Double Dagger 11.2 7.9 80 10 17 24.1 101.08     LegendNANA
02:00 Legend Double Dagger 11.2 6.6 73 12 19 24.1 101.01     Mostly Cloudy
03:00 Legend Double Dagger 10.9 7.1 77 12 18 24.1 100.95     LegendNANA
04:00 Legend Double Dagger 11.0 8.3 83 13 23 24.1 100.88     LegendNANA
05:00 Legend Double Dagger 11.1 8.7 85 12 25 24.1 100.76     Cloudy
06:00 Legend Double Dagger 10.7 8.1 84 12 26 24.1 100.71     LegendNANA
07:00 Legend Double Dagger 11.2 8.3 82 12 25 24.1 100.57     LegendNANA
08:00 Legend Double Dagger 11.5 8.6 82 11 28 24.1 100.49     Cloudy
09:00 Legend Double Dagger 10.7 10.7 100 11 28 6.4 100.43     Rain,Fog
10:00 Legend Double Dagger 11.6 11.6 100 12 28 8.1 100.39     Drizzle,Fog
11:00 Legend Double Dagger 12.2 12.2 100 11 25 8.1 100.31     Rain,Fog
12:00 Legend Double Dagger 13.3 13.3 100 15 16 8.1 100.28     Rain,Fog
13:00 Legend Double Dagger 14.8 14.8 100 14 23 24.1 100.17     LegendNANA
14:00 Legend Double Dagger 15.6 15.6 100 15 22 24.1 100.10     Cloudy
15:00 Legend Double Dagger 15.9 15.9 100 14 20 16.1 100.04     LegendNANA
16:00 Legend Double Dagger 15.9 15.9 100 14 18 8.1 99.97     Fog
17:00 Legend Double Dagger 16.0 16.0 100 13 23 16.1 99.90     Mostly Cloudy
18:00 Legend Double Dagger 15.9 15.9 100 12 24 16.1 99.87     LegendNANA
19:00 Legend Double Dagger 16.1 16.1 100 12 17 24.1 99.80     LegendNANA
20:00 Legend Double Dagger 16.1 16.1 100 12 22 16.1 99.75     Cloudy
21:00 Legend Double Dagger 15.9 15.9 100 12 21 24.1 99.64     LegendNANA
22:00 Legend Double Dagger 16.3 16.3 100 12 23 16.1 99.52     Rain
23:00 Legend Double Dagger 15.7 15.7 100 11 19 4.8 99.35     Drizzle,Fog

Notes on Data Quality.

Legend

  • E = Estimated
  • M = Missing
  • NA = Not Available
  • ‡ = Partner data that is not subject to review by the National Climate Archives
Date modified: